[[{"header":{"parameterUnit":"m.s-1","parameterCategory":2,"la1":30.2992,"la2":30.254,"lo1":-89.0895,"lo2":-89.0443,"dy":0.0025,"dx":0.0025,"nx":19,"ny":19,"refTime":"2026-05-10T09:00:00:Z","depth":"0","parameterNumber":2,"parameterNumberName":"U-component_of_CURRENTS"},"data":[0,0,0,0.1433,0.1434,0.1509,0.1509,0.1791,0.1794,0,0,0,0,0,0,0,0,0,0,0,0.1411,0.1412,0.1433,0.1434,0.1509,0.1509,0.1791,0.1794,0,0,0,0,0,0,0,0,0,0,0,0.1411,0.1411,0.1412,0.1434,0.1509,0.1509,0.179,0.1691,0,0,0,0,0,0,0,0,0,0,0.1596,0.1539,0.1411,0.1412,0.1435,0.1509,0.1509,0.1684,0.1697,0.1806,0,0.1808,0,0.1805,0.1816,0.1817,0,0,0,0.1449,0.1527,0.1551,0.1412,0.1435,0.1508,0.1479,0.169,0.1705,0.1824,0.1811,0.182,0.181,0.1818,0.182,0.2164,0.2165,0,0,0.1445,0.1432,0.154,0.156,0.1447,0.1477,0.1481,0.1697,0.1713,0.1812,0.1826,0.1815,0.182,0.1823,0.2163,0.2164,0,0,0,0.1423,0.1429,0.1443,0.155,0.1547,0.1478,0.1484,0.1703,0.1708,0.1829,0.1818,0.1822,0.1826,0.2161,0.2163,0.2176,0,0,0,0.1421,0.1415,0.1441,0.1436,0.1541,0.1599,0.1485,0.1693,0.1716,0.1817,0.1822,0.1829,0.216,0.2162,0.2172,0.2165,0,0,0,0.1409,0.1414,0.1419,0.1434,0.1459,0.1594,0.1611,0.1697,0.1711,0.1817,0.183,0.2159,0.2162,0.2169,0.2161,0.2204,0,0,0,0.1398,0.1447,0.1419,0.1471,0.1458,0.1567,0.1609,0.1708,0.1798,0.1824,0.216,0.2163,0.2168,0.2158,0.2201,0.2209,0.2223,0,0,0.1464,0.1454,0.1486,0.1463,0.1555,0.1558,0.1706,0.1829,0.189,0.2102,0.2108,0.2173,0.216,0.2203,0.2393,0.24,0,0,0,0.151,0.1536,0.1559,0.1594,0.1647,0.1733,0.1829,0.19,0.2069,0.1954,0.2235,0.2228,0.2253,0.2255,0.2262,0.2357,0.2178,0.2177,0.2177,0.1598,0.1608,0.1684,0.1723,0.1782,0.1885,0.1977,0.2106,0.2152,0.2233,0.2283,0.2386,0.2393,0.2397,0.2497,0.2344,0.2344,0.2344,0.2344,0.1722,0.1774,0.1779,0.1854,0.191,0.202,0.2176,0.2216,0.2378,0.2376,0.24,0.2325,0.2405,0.2509,0.2346,0.2346,0.2346,0.2346,0.2345,0.1796,0.1829,0.1846,0.1922,0.2002,0.2085,0.2184,0.229,0.2396,0.2436,0.2449,0.2448,0.2497,0.245,0.245,0.245,0.245,0.245,0.2451,0.1871,0.1898,0.1917,0.1988,0.1995,0.2057,0.2182,0.2259,0.24,0.2475,0.2475,0.2571,0.2419,0.2365,0.2454,0.2453,0.2453,0.2452,0.2452,0.1971,0.1933,0.1958,0.1953,0.1973,0.1982,0.2103,0.2255,0.2368,0.2441,0.2656,0.251,0.2505,0.25,0.2451,0.2556,0.2556,0.2556,0.2556,0.1989,0.1994,0.1938,0.19,0.191,0.1936,0.1986,0.2158,0.249,0.2672,0.2755,0.2747,0.2739,0.2747,0.2736,0.2693,0.2857,0.2857,0.2858,0.2007,0.1978,0.1911,0.186,0.1848,0.1864,0.1883,0.2035,0.2565,0.288,0.2892,0.2879,0.2876,0.2855,0.2869,0.2846,0.2774,0,0]},{"header":{"parameterUnit":"m.s-1","parameterCategory":2,"la1":30.2992,"la2":30.254,"lo1":-89.0895,"lo2":-89.0443,"dy":0.0025,"dx":0.0025,"nx":19,"ny":19,"refTime":"2026-05-10T09:00:00:Z","depth":"0","parameterNumber":3,"parameterNumberName":"V-component_of_CURRENTS"},"data":[0,0,0,0.0256,0.0257,0.0328,0.0329,0.0501,0.0502,0,0,0,0,0,0,0,0,0,0,0,0.0243,0.0243,0.0256,0.0257,0.0328,0.0329,0.05,0.0502,0,0,0,0,0,0,0,0,0,0,0,0.0243,0.0243,0.0244,0.0257,0.0328,0.0329,0.05,0.0431,0,0,0,0,0,0,0,0,0,0,0.0354,0.0322,0.0243,0.0244,0.0258,0.0328,0.0329,0.0427,0.0436,0.0485,0,0.049,0,0.0489,0.0514,0.0514,0,0,0,0.0278,0.0314,0.033,0.0244,0.0258,0.0328,0.0302,0.0431,0.0441,0.0497,0.0492,0.0498,0.0492,0.0515,0.0516,0.077,0.0771,0,0,0.0274,0.0265,0.0323,0.0335,0.0271,0.0299,0.0304,0.0437,0.0449,0.0493,0.0502,0.0495,0.0516,0.0517,0.0768,0.077,0,0,0,0.0249,0.0263,0.0273,0.0329,0.0329,0.0301,0.0306,0.0443,0.0445,0.0503,0.0497,0.0517,0.0519,0.0767,0.0769,0.0866,0,0,0,0.0247,0.0246,0.0271,0.0269,0.0325,0.0374,0.031,0.0436,0.045,0.0496,0.0517,0.0521,0.0765,0.0768,0.086,0.0877,0,0,0,0.0241,0.0246,0.025,0.0268,0.0287,0.0372,0.0382,0.0439,0.0446,0.0515,0.0521,0.0764,0.0767,0.0855,0.0869,0.087,0,0,0,0.0235,0.029,0.0251,0.0328,0.0286,0.0428,0.0381,0.0492,0.0563,0.0518,0.0765,0.0769,0.0853,0.0864,0.0866,0.0868,0.0887,0,0,0.0312,0.0299,0.0352,0.0318,0.047,0.042,0.0598,0.065,0.0631,0.0727,0.0732,0.0862,0.0868,0.0869,0.1074,0.1086,0,0,0,0.0384,0.0422,0.0467,0.0531,0.06,0.0682,0.0724,0.0746,0.0824,0.0681,0.0908,0.0909,0.0905,0.0901,0.0912,0.0883,0.0785,0.0785,0.0785,0.0489,0.0528,0.0648,0.0716,0.0798,0.0889,0.0952,0.0987,0.0966,0.1013,0.1023,0.1137,0.114,0.1147,0.112,0.1077,0.1077,0.1078,0.1078,0.0636,0.0709,0.0766,0.0888,0.0963,0.1089,0.1176,0.1166,0.1213,0.1172,0.1163,0.1049,0.1164,0.1131,0.1085,0.1084,0.1083,0.1082,0.1082,0.0712,0.0754,0.081,0.0956,0.109,0.1183,0.1284,0.1312,0.1286,0.1302,0.1233,0.1231,0.1163,0.128,0.128,0.128,0.128,0.128,0.128,0.0754,0.082,0.0897,0.103,0.1104,0.1225,0.1327,0.135,0.1351,0.1329,0.1328,0.1224,0.1197,0.1143,0.1283,0.1282,0.1282,0.1282,0.1282,0.0848,0.0837,0.0949,0.1016,0.1184,0.129,0.1367,0.1412,0.1403,0.1394,0.1327,0.1332,0.1279,0.127,0.1219,0.1369,0.1369,0.1369,0.1369,0.0867,0.0887,0.099,0.1088,0.122,0.1327,0.1421,0.1485,0.1439,0.1405,0.135,0.1328,0.1326,0.1273,0.1264,0.1211,0.1356,0.1356,0.1356,0.0904,0.0924,0.0993,0.1092,0.1236,0.1357,0.1457,0.1599,0.1511,0.1352,0.1315,0.1316,0.1278,0.1276,0.1184,0.1174,0.1083,0,0]}],[{"header":{"parameterUnit":"m.s-1","parameterCategory":2,"la1":30.2992,"la2":30.254,"lo1":-89.0895,"lo2":-89.0443,"dy":0.0025,"dx":0.0025,"nx":19,"ny":19,"refTime":"2026-05-10T09:00:00:Z","depth":"2","parameterNumber":2,"parameterNumberName":"U-component_of_CURRENTS"},"data":[0,0,0,0.0242,0.0244,0.0328,0.0328,0.0358,0.0358,0,0,0,0,0,0,0,0,0,0,0,0.0221,0.0222,0.0242,0.0244,0.0327,0.0328,0.0358,0.0358,0,0,0,0,0,0,0,0,0,0,0,0.0221,0.0221,0.0222,0.0245,0.0327,0.0328,0.0358,0.0316,0,0,0,0,0,0,0,0,0,0,0.0245,0.0247,0.0221,0.0222,0.0245,0.0327,0.0328,0.0314,0.0318,0.0297,0,0.0317,0,0.0331,0.0358,0.0358,0,0,0,0.0249,0.0245,0.0251,0.0222,0.0246,0.0327,0.0291,0.0317,0.0321,0.0302,0.0317,0.0319,0.0331,0.0358,0.0358,0.0366,0.0366,0,0,0.0245,0.0249,0.0249,0.0254,0.0274,0.0289,0.0294,0.0321,0.0335,0.0318,0.032,0.0332,0.0358,0.0358,0.0366,0.0366,0,0,0,0.0228,0.0245,0.0254,0.0252,0.027,0.0291,0.0297,0.0335,0.0333,0.032,0.0332,0.0358,0.0358,0.0366,0.0366,0.0457,0,0,0,0.0226,0.0235,0.0252,0.0256,0.027,0.0317,0.031,0.0332,0.0335,0.0332,0.0358,0.0358,0.0366,0.0366,0.0455,0.0501,0,0,0,0.0216,0.0234,0.0243,0.0256,0.0287,0.0317,0.0319,0.0334,0.0341,0.0358,0.0358,0.0366,0.0366,0.0452,0.0496,0.0587,0,0,0,0.0217,0.0213,0.0243,0.0247,0.0287,0.03,0.0319,0.0346,0.0361,0.0358,0.0366,0.0366,0.0451,0.0493,0.0583,0.0637,0.066,0,0,0.0198,0.0211,0.0209,0.0237,0.0249,0.0289,0.0325,0.0361,0.0356,0.0352,0.0353,0.0455,0.0496,0.0586,0.0652,0.0674,0,0,0,0.0193,0.0201,0.0206,0.0234,0.025,0.0321,0.0346,0.0369,0.0418,0.0366,0.0435,0.0457,0.0512,0.0535,0.0552,0.0367,0.0367,0.0367,0.0367,0.0174,0.019,0.0212,0.0246,0.0274,0.0342,0.0401,0.044,0.0421,0.0462,0.0516,0.0625,0.0648,0.0662,0.0494,0.0494,0.0494,0.0495,0.0495,0.0174,0.021,0.0251,0.0289,0.036,0.0418,0.0489,0.0521,0.0617,0.0567,0.0617,0.0609,0.0687,0.0502,0.05,0.0499,0.0499,0.0498,0.0498,0.0196,0.0222,0.0261,0.0351,0.0449,0.0519,0.0639,0.0685,0.0713,0.0771,0.0822,0.0821,0.0713,0.082,0.0821,0.0821,0.0822,0.0822,0.0823,0.0228,0.026,0.0336,0.0424,0.0506,0.0628,0.0754,0.0825,0.0925,0.0931,0.0931,0.0735,0.0725,0.0731,0.0832,0.0831,0.0829,0.0828,0.0828,0.0284,0.0306,0.0404,0.0482,0.0639,0.0722,0.0832,0.0997,0.1092,0.1149,0.1022,0.1014,0.0999,0.0983,0.0995,0.1159,0.1159,0.1159,0.1159,0.033,0.0341,0.0479,0.0584,0.07,0.0768,0.0895,0.097,0.1064,0.1038,0.1042,0.0948,0.094,0.0913,0.0898,0.0904,0.1045,0.1044,0.1043,0.0386,0.0412,0.0514,0.0603,0.072,0.0791,0.086,0.0888,0.0915,0.1026,0.089,0.1177,0.1046,0.103,0.099,0.0967,0.0977,0,0]},{"header":{"parameterUnit":"m.s-1","parameterCategory":2,"la1":30.2992,"la2":30.254,"lo1":-89.0895,"lo2":-89.0443,"dy":0.0025,"dx":0.0025,"nx":19,"ny":19,"refTime":"2026-05-10T09:00:00:Z","depth":"2","parameterNumber":3,"parameterNumberName":"V-component_of_CURRENTS"},"data":[0,0,0,-0.0337,-0.0339,-0.0428,-0.0428,-0.0514,-0.0515,0,0,0,0,0,0,0,0,0,0,0,-0.0306,-0.0306,-0.0337,-0.0339,-0.0428,-0.0428,-0.0514,-0.0515,0,0,0,0,0,0,0,0,0,0,0,-0.0306,-0.0306,-0.0306,-0.0339,-0.0428,-0.0428,-0.0514,-0.0457,0,0,0,0,0,0,0,0,0,0,-0.0375,-0.0353,-0.0306,-0.0306,-0.034,-0.0427,-0.0428,-0.0455,-0.046,-0.0462,0,-0.0469,0,-0.0488,-0.0519,-0.0519,0,0,0,-0.0352,-0.0349,-0.0362,-0.0306,-0.034,-0.0427,-0.0391,-0.0458,-0.0465,-0.047,-0.047,-0.0474,-0.0489,-0.0519,-0.0519,-0.0544,-0.0543,0,0,-0.0347,-0.0334,-0.0358,-0.0366,-0.0354,-0.0388,-0.0394,-0.0463,-0.047,-0.0471,-0.0476,-0.0491,-0.052,-0.052,-0.0544,-0.0544,0,0,0,-0.0324,-0.0331,-0.0344,-0.0362,-0.0377,-0.039,-0.0397,-0.0468,-0.0469,-0.0477,-0.0492,-0.052,-0.0521,-0.0544,-0.0544,-0.0489,0,0,0,-0.0322,-0.0317,-0.0342,-0.0337,-0.0376,-0.0429,-0.04,-0.0465,-0.0473,-0.0491,-0.052,-0.0521,-0.0544,-0.0544,-0.0491,-0.044,0,0,0,-0.0303,-0.0315,-0.032,-0.0336,-0.0368,-0.0429,-0.0436,-0.0467,-0.0481,-0.0519,-0.0521,-0.0544,-0.0544,-0.0492,-0.0445,-0.0399,0,0,0,-0.0296,-0.0303,-0.032,-0.0334,-0.0367,-0.0402,-0.0436,-0.048,-0.0512,-0.052,-0.0544,-0.0544,-0.0493,-0.0447,-0.0402,-0.0295,-0.0274,0,0,-0.0298,-0.0303,-0.031,-0.0327,-0.0341,-0.0392,-0.0407,-0.0467,-0.0503,-0.0522,-0.0524,-0.049,-0.0445,-0.04,-0.0271,-0.025,0,0,0,-0.0307,-0.0305,-0.0317,-0.0328,-0.0359,-0.0367,-0.0432,-0.0448,-0.0479,-0.0517,-0.0497,-0.047,-0.0443,-0.0385,-0.0369,-0.0542,-0.0542,-0.0542,-0.0542,-0.0294,-0.0298,-0.0295,-0.0302,-0.0319,-0.0358,-0.0366,-0.0395,-0.0451,-0.0452,-0.0431,-0.0364,-0.0302,-0.0289,-0.0453,-0.0452,-0.0452,-0.0452,-0.0452,-0.0273,-0.0258,-0.0256,-0.0253,-0.0254,-0.0266,-0.0288,-0.0321,-0.0321,-0.0379,-0.0357,-0.0337,-0.0267,-0.0448,-0.0448,-0.0449,-0.0449,-0.045,-0.045,-0.0251,-0.0238,-0.0237,-0.0205,-0.0181,-0.0199,-0.0146,-0.0195,-0.0248,-0.0233,-0.0184,-0.0184,-0.031,-0.0236,-0.0235,-0.0235,-0.0235,-0.0234,-0.0234,-0.0224,-0.0216,-0.0177,-0.0152,-0.0117,-0.0073,-0.0067,-0.0047,-0.005,-0.0092,-0.0092,-0.0291,-0.0298,-0.0298,-0.0227,-0.0229,-0.0229,-0.023,-0.0231,-0.0184,-0.0184,-0.0117,-0.0078,0.0017,0.0115,0.0106,0.0183,0.0175,0.0203,-0.001,-0.0018,-0.0018,-0.0031,-0.0025,0.0112,0.0112,0.0112,0.0112,-0.0153,-0.015,-0.0044,0.0044,0.0148,0.0211,0.0375,0.0366,0.0274,0.0151,0.0148,0.0104,0.0092,0.0093,0.0076,0.0082,0.0247,0.0247,0.0246,-0.0113,-0.0086,0.0005,0.0089,0.0209,0.0339,0.0507,0.0507,0.0279,0.0242,0.0067,0.0141,0.007,0.0052,0.0043,0.0021,0.0025,0,0]}],[{"header":{"parameterUnit":"m.s-1","parameterCategory":2,"la1":30.2992,"la2":30.254,"lo1":-89.0895,"lo2":-89.0443,"dy":0.0025,"dx":0.0025,"nx":19,"ny":19,"refTime":"2026-05-10T09:00:00:Z","depth":"4","parameterNumber":2,"parameterNumberName":"U-component_of_CURRENTS"},"data":[0,0,0,0.0094,0.0094,0.0087,0.0087,0.0057,0.0056,0,0,0,0,0,0,0,0,0,0,0,0.01,0.01,0.0094,0.0094,0.0087,0.0087,0.0057,0.0056,0,0,0,0,0,0,0,0,0,0,0,0.01,0.01,0.01,0.0094,0.0087,0.0087,0.0057,0.0068,0,0,0,0,0,0,0,0,0,0,0.0077,0.0075,0.01,0.01,0.0094,0.0087,0.0087,0.0068,0.0067,0.0053,0,0.0055,0,0.0052,0.0054,0.0053,0,0,0,0.0095,0.0076,0.0084,0.0101,0.0094,0.0087,0.0091,0.0068,0.0066,0.0051,0.0054,0.0053,0.0051,0.0053,0.0053,0.0008,0.0008,0,0,0.0095,0.0088,0.0085,0.0083,0.0095,0.0091,0.009,0.0067,0.006,0.0054,0.0053,0.0051,0.0053,0.0053,0.0008,0.0008,0,0,0,0.0096,0.0088,0.0097,0.0084,0.0083,0.0091,0.009,0.0061,0.0067,0.0052,0.0051,0.0053,0.0052,0.0008,0.0008,0.0043,0,0,0,0.0096,0.0089,0.0097,0.0091,0.0084,0.0072,0.0085,0.0069,0.0066,0.0051,0.0053,0.0052,0.0008,0.0008,0.0043,0.0071,0,0,0,0.01,0.0089,0.0092,0.0091,0.0089,0.0073,0.0077,0.0068,0.0064,0.0053,0.0052,0.0009,0.0008,0.0042,0.007,0.0103,0,0,0,0.0088,0.0076,0.0091,0.0077,0.0089,0.0075,0.0077,0.0063,0.0054,0.0053,0.0008,0.0008,0.0042,0.0069,0.0102,0.0111,0,0,0,0.0065,0.0073,0.0066,0.0079,0.0071,0.0076,0.0066,0.0059,0.0041,0.0015,0.0014,0.0043,0.007,0.0103,0.0081,0,0,0,0,0.0054,0.0054,0.005,0.0053,0.005,0.0063,0.0052,0.005,0.004,0.0033,0.0023,0.0039,0.0059,0.0058,0.0006,0.0006,0.0006,0.0006,0.0006,0.0017,0.0031,0.0027,0.0045,0.0043,0.0051,0.0059,0.0054,0.0034,0.0034,0.0052,0.0082,0.0079,0.0027,0.0027,0.0027,0.0027,0.0027,0.0028,-0.0001,0.0007,0.0031,0.0036,0.006,0.0063,0.0075,0.0077,0.0092,0.0062,0.008,0.0075,0.0031,0.003,0.0029,0.0029,0.0029,0.0029,0.0029,-0.0011,-0.0002,0.001,0.0037,0.0068,0.0089,0.0126,0.0133,0.013,0.0147,0.0152,0.0112,0.0128,0.0159,0.0159,0.0159,0.016,0.016,0.016,-0.0022,-0.0009,0.001,0.0041,0.0069,0.0113,0.0162,0.0181,0.0191,0.0201,0.0166,0.0126,0.0122,0.0135,0.0164,0.0163,0.0163,0.0162,0.0162,-0.0031,-0.0022,0.0006,0.0031,0.0094,0.0129,0.0174,0.0235,0.0264,0.0278,0.0227,0.0223,0.0218,0.0212,0.0228,0.0286,0.0286,0.0286,0,-0.0037,-0.003,0.0011,0.0052,0.0103,0.0142,0.0204,0.0238,0.0261,0.0263,0.0238,0.0177,0.0175,0.0163,0.0158,0.0173,0,0,0,-0.0041,-0.0023,0.0006,0.0053,0.0113,0.0182,0.0224,0.025,0.0258,0.0295,0.0293,0.0291,0.0184,0.0176,0.0159,0.0153,0.0174,0,0]},{"header":{"parameterUnit":"m.s-1","parameterCategory":2,"la1":30.2992,"la2":30.254,"lo1":-89.0895,"lo2":-89.0443,"dy":0.0025,"dx":0.0025,"nx":19,"ny":19,"refTime":"2026-05-10T09:00:00:Z","depth":"4","parameterNumber":3,"parameterNumberName":"V-component_of_CURRENTS"},"data":[0,0,0,0.0181,0.0181,0.0181,0.0181,0.0081,0.008,0,0,0,0,0,0,0,0,0,0,0,0.0173,0.0173,0.0181,0.0181,0.0181,0.0181,0.0081,0.008,0,0,0,0,0,0,0,0,0,0,0,0.0173,0.0173,0.0173,0.0181,0.0181,0.0181,0.0081,0.0104,0,0,0,0,0,0,0,0,0,0,0.0116,0.0124,0.0173,0.0173,0.0181,0.0181,0.0181,0.0106,0.0102,0.0055,0,0.0057,0,0.007,0.0071,0.0071,0,0,0,0.0173,0.0127,0.0132,0.0173,0.0181,0.0181,0.0179,0.0105,0.0101,0.0049,0.0056,0.0053,0.0068,0.0071,0.007,-0.0076,-0.0077,0,0,0.0173,0.0165,0.0135,0.0129,0.0182,0.0179,0.0179,0.0103,0.0094,0.0056,0.0052,0.0067,0.007,0.0069,-0.0076,-0.0076,0,0,0,0.0178,0.0165,0.0173,0.0132,0.0143,0.0179,0.0179,0.0097,0.0101,0.0051,0.0066,0.0069,0.0068,-0.0075,-0.0076,-0.0093,0,0,0,0.0178,0.0169,0.0173,0.0167,0.0145,0.0134,0.0174,0.0106,0.0099,0.0066,0.0069,0.0066,-0.0074,-0.0075,-0.0091,-0.0082,0,0,0,0.0173,0.0169,0.0171,0.0167,0.0173,0.0136,0.0136,0.0106,0.0108,0.0071,0.0066,-0.0074,-0.0075,-0.0089,-0.008,-0.0083,0,0,0,0.0163,0.015,0.017,0.0154,0.0173,0.015,0.0137,0.0109,0.0078,0.0068,-0.0074,-0.0076,-0.0089,-0.0079,-0.0082,-0.0021,0,0,0,0.0139,0.0147,0.0137,0.0155,0.0136,0.0149,0.0101,0.006,0.0033,-0.0056,-0.0059,-0.0092,-0.008,-0.0083,-0.0118,0,0,0,0,0.0124,0.012,0.0115,0.0112,0.0105,0.0084,0.0059,0.003,-0.0046,0.0009,-0.012,-0.0112,-0.0113,-0.0077,-0.0084,-0.0084,-0.0083,-0.0083,-0.0083,0.0073,0.0083,0.0066,0.0071,0.0054,0.0027,-0.0004,-0.0056,-0.008,-0.0122,-0.0148,-0.019,-0.0157,-0.0182,-0.0182,-0.0182,-0.0182,-0.0182,-0.0182,0.004,0.0034,0.0038,0.0027,0.001,-0.0031,-0.0088,-0.0111,-0.0181,-0.0192,-0.0192,-0.0125,-0.0185,-0.0184,-0.0184,-0.0184,-0.0183,-0.0183,-0.0183,0.0012,0.0013,0.0012,0.0003,-0.0032,-0.0064,-0.0101,-0.0152,-0.0194,-0.0211,-0.0171,-0.0199,-0.017,-0.0217,-0.0217,-0.0217,-0.0217,-0.0217,-0.0217,-0.0012,-0.0009,-0.0011,-0.0021,-0.0035,-0.0063,-0.0112,-0.0133,-0.0178,-0.0178,-0.0216,-0.0201,-0.02,-0.0173,-0.0217,-0.0217,-0.0217,-0.0217,-0.0217,-0.0033,-0.0023,-0.0025,-0.003,-0.0048,-0.0058,-0.0089,-0.0105,-0.0125,-0.0134,-0.0158,-0.0161,-0.0141,-0.0142,-0.0111,-0.0138,-0.0137,-0.0137,0,-0.0045,-0.004,-0.0033,-0.0035,-0.0044,-0.0057,-0.0053,-0.007,-0.0108,-0.0103,-0.0148,-0.0175,-0.0177,-0.0155,-0.0154,-0.0119,0,0,0,-0.0053,-0.0046,-0.0043,-0.0035,-0.0043,-0.0044,-0.0052,-0.0051,-0.0093,-0.0086,-0.012,-0.0125,-0.017,-0.0217,-0.0193,-0.0192,-0.0146,0,0]}]]